Regional Weather Roundup
Issued by NWS

Home | Current Version | Previous Version | Graphics & Text | Print | Product List | Glossary On
Versions: 1 2 3 4 5 6 7 8 9 10 11 12 13 14 15 16 17 18 19 20 21 22 23 24 25 26 27 28
000
ASUS45 KTFX 221010
RWRMT
MONTANA REGIONAL WEATHER ROUNDUP
NATIONAL WEATHER SERVICE GREAT FALLS MT
400 AM MDT SUN APR 22 2018

NOTE: "FAIR" INDICATES FEW OR NO CLOUDS BELOW 12000 FEET WITH NO
SIGNIFICANT WEATHER AND/OR OBSTRUCTIONS TO VISIBILITY.

MTZ001>007-043-221100-
WEST OF THE DIVIDE

CITY           SKY/WX    TMP DP  RH WIND       PRES   REMARKS
KALISPELL      FAIR      36  24  62 S8        30.17R WCI  30
MISSOULA       FAIR      32  23  69 NW5       30.21S
BUTTE          FAIR      31  23  72 SE6       30.18S WCI  25
MULLAN PASS    FAIR      29  16  58 VRB7      30.16F WCI  22
ANACONDA         N/A     30  21  69 SW6       30.19S WCI  24
DEER LODGE       N/A     34  21  60 CALM      30.21S
HAMILTON         N/A     36  27  69 MISG      30.21R
RONAN            N/A     37  23  56 S8        30.21S WCI  31
$$

MTZ008-052>055-221100-
SOUTHWEST MONTANA

CITY           SKY/WX    TMP DP  RH WIND       PRES   REMARKS
BOZEMAN        FAIR      37  26  64 S5        30.17R
DILLON         FAIR      34  27  75 E12       30.14F WCI  25
ENNIS          FAIR      34  27  75 SE6       30.21R WCI  29
W YELLOWSTONE  FAIR      28  25  86 NE8       30.16R WCI  20
THREE FORKS      N/A     33  26  76 CALM      30.14S
$$

MTZ009-010-012-014-046-048-049-054-221100-
EAST SLOPES AND CENTRAL MONTANA

CITY           SKY/WX    TMP DP  RH WIND       PRES   REMARKS
CUT BANK       FAIR      40  20  44 W15       30.10S
GREAT FALLS    FAIR      37  25  61 SW10      30.13F WCI  30
HELENA         FAIR      46  22  38 CALM      30.17S
AUGUSTA        FAIR      37  17  44 CALM      30.13S
BOWMANS CRNR   MOCLDY    37  19  48 SW6       30.12S
CHOTEAU          N/A     39  21  48 W5        30.14S
FAIRFIELD      CLOUDY    40  21  45 W7        30.12R
POWER          MOCLDY    41  21  45 SW12      30.11S
RAYNESFORD     MOCLDY    40  22  49 E3        30.14R
ULM            MOCLDY    38  26  61 S5        30.14S
WHITE SULPHUR    N/A     34  21  60 CALM      30.15R
$$

MTZ011-013-016-021-045-047-050-051-221100-
NORTH CENTRAL MONTANA

CITY           SKY/WX    TMP DP  RH WIND       PRES   REMARKS
HAVRE          FAIR      40  27  59 SW5       30.11R
LEWISTOWN      FAIR      35  22  58 SE7       30.15S WCI  29
N BAR RANCH    CLOUDY    37  18  44 VRB5      30.18S
CHINOOK          N/A     41  30  65 CALM      30.11R
GEYSER         MOCLDY    38  21  51 SW9       30.13S WCI  31
GRASS RANGE    MOCLDY    40  23  50 SW8       30.12S
STANFORD       MOCLDY    36  23  60 CALM      30.14S
WINIFRED         N/A    N/A N/A N/A SW6         N/A
$$

MTZ017>020-022>027-061-062-221100-
NORTHEAST MONTANA

CITY           SKY/WX    TMP DP  RH WIND       PRES   REMARKS
GLASGOW        FAIR      42  26  53 SW3       30.11R
GLENDIVE       FAIR      43  27  53 NW6       30.11R
JORDAN           N/A     37  30  75 NW6       30.14R
MALTA          CLEAR     37  32  81 CALM      30.09S
SIDNEY         MOCLDY    48  27  44 NW8       30.09R
WOLF POINT     FAIR      40  28  62 W6        30.10R
PLENTYWOOD       N/A     45  25  45 CALM      30.07R
POPLAR           N/A     45  25  45 W5        30.11R
$$

MTZ028>42-056>058-221100-
SOUTHCENTRAL AND SOUTHEAST MONTANA

CITY           SKY/WX    TMP DP  RH WIND       PRES   REMARKS
BAKER          FAIR      34  33  96 CALM      30.12R
BILLINGS       MOCLDY    47  30  51 E10       30.17S
MILES CITY     FAIR      44  29  55 NE6       30.14R
BIG TIMBER     MOCLDY    41  23  48 E6        30.18S
FORSYTH          N/A     48  27  43 W5        30.16R
HARLOWTON      MOCLDY    38  21  50 W6        30.16R
LAUREL           N/A     43  28  56 NE9       30.18R
$$

REGIONAL REPORTS...DAKOTAS

CITY           SKY/WX    TMP DP  RH WIND       PRES   REMARKS
WILLISTON      FAIR      45  26  47 W9        30.07R
MINOT          FAIR      43  36  76 SW13G22   30.07F
DICKINSON      FAIR      32  31  96 SW8       30.09R WCI  25
BEACH          FAIR      34  34 100 CALM      30.13S
CROSBY         FAIR      41  30  65 W10       30.05R
TIOGA          FAIR      37  37 100 SW5       30.07R
BISMARCK       FAIR      37  34  89 CALM      30.19R
GRAND FORKS    FAIR      36  36 100 S12       30.22F WCI  28
FARGO          FAIR      36  32  85 S7        30.28R WCI  30
BUFFALO SD       N/A     37  34  89 S6        30.06R
RAPID CITY     FAIR      34  31  88 SE7       30.11R WCI  28
$$

REGIONAL REPORTS...WYOMING/IDAHO/WASHINGTON

CITY           SKY/WX    TMP DP  RH WIND       PRES   REMARKS
GILLETTE       FAIR      37  34  89 SW3G18    30.11R
SHERIDAN       FAIR      44  32  62 NW13      30.19R
BUFFALO WY     FAIR      46  30  53 N26G35    30.15R
CODY           FAIR      45  25  45 NW8       30.16S
YELLOWSTONE LA   N/A     25  22  88 CALM      30.23S
IDAHO FALLS    FAIR      47  32  56 S10       30.14S
SALMON         FAIR      38  31  76 S5        30.16S
BOISE          FAIR      44  26  49 W5        30.14F
SPOKANE        FAIR      35  26  69 S6        30.22R WCI  30
$$

REGIONAL REPORTS...ALBERTA

CITY           SKY/WX    TMP DP  RH WIND       PRES   REMARKS
CALGARY        PTCLDY    39  21  48 W16G23    30.04R WCI  30
CARDSTON         N/A     41  19  42 W14         N/A
EDMONTON       CLEAR     37  18  44 W17       29.94R WCI  28
FORT MCMURRAY  CLOUDY    41  37  87 NW9       29.70R
HIGH LEVEL     LGT RAIN  34  32  93 NW9       29.91R WCI  26
LETHBRIDGE     CLEAR     32  25  74 SW10      30.09R WCI  24
LLOYDMINSTER   PTCLDY    37  30  75 W22G29    29.82R WCI  27
MEDICINE HAT   CLEAR     37  27  65 SW10      30.06R WCI  30
MILK RIVER       N/A     36  27  69 N8          N/A  WCI  29
ONEFOUR          N/A     41  27  56 NW13        N/A
PEACE RIVER    MOCLDY    37  32  81 W14       29.94R WCI  29
PINCHER CREEK  PTCLDY    36  23  60 W9        30.10R WCI  29
WATERTON GATE    N/A     37  19  48 SW7         N/A
$$

REGIONAL REPORTS...SASKATCHEWAN

CITY           SKY/WX    TMP DP  RH WIND       PRES   REMARKS
CORONACH         N/A     37  25  60 SW8         N/A  WCI  31
CYPRESS HILLS    N/A     37  18  44 W8          N/A  WCI  31
ESTEVAN        CLOUDY    43  30  61 W10       30.03R
MOOSE JAW        N/A     41  32  70 W13         N/A
PRINCE ALBERT  LGT RAIN  39  36  87 W20G31    29.65R WCI  30
REGINA         PTCLDY    34  30  86 SW7       29.96R WCI  28
ROCKGLEN         N/A     36  27  69 SW10        N/A  WCI  28
SASKATOON      PTCLDY    41  36  81 W18G26    29.81R
SWIFT CURRENT  CLEAR     37  28  70 W18G26    29.99R WCI  27
VAL MARIE        N/A     36  28  75 S7          N/A  WCI  30
$$




USA.gov is the U.S. government's official web portal to all federal, state and local government web resources and services.